EW7929 Weather Reports


Display with metric or nautical units.
time (UTC)temp
F
wind
direction
speed
MPH
gust
MPH
rain 1hr
in
rain 24hr
in
rain mn
in
humidity
%
barometer
mb
20190318235053 48 16 1.0 3.0 0.00 0.00 0.00 69 954.9
20190318234532 48 26 0.0 2.0 0.00 0.00 0.00 68 954.8
20190318234042 48 235 1.0 2.0 0.00 0.00 0.00 68 954.7
20190318233551 48 218 1.0 3.0 0.00 0.00 0.00 69 954.8
20190318233053 48 225 1.0 3.0 0.00 0.00 0.00 69 954.7
20190318232532 48 215 0.0 3.0 0.00 0.00 0.00 69 954.7
20190318232036 48 233 1.0 3.0 0.00 0.00 0.00 68 954.6
20190318231535 48 220 1.0 3.0 0.00 0.00 0.00 67 954.6
20190318231038 49 203 1.0 2.0 0.00 0.00 0.00 66 954.6
20190318230616 49 280 0.0 2.0 0.00 0.00 0.00 66 954.6
20190318230105 49 195 0.0 2.0 0.00 0.00 0.00 66 954.5
20190318225548 50 194 1.0 2.0 0.00 0.00 0.00 65 954.5
20190318225046 50 194 0.0 2.0 0.00 0.00 0.00 65 954.4
20190318224543 50 211 0.0 1.0 0.00 0.00 0.00 64 954.5
20190318224050 51 211 0.0 1.0 0.00 0.00 0.00 63 954.5
20190318223533 51 208 0.0 1.0 0.00 0.00 0.00 63 954.5
20190318223029 51 193 0.0 1.0 0.00 0.00 0.00 62 954.5
20190318222529 52 259 0.0 1.0 0.00 0.00 0.00 62 954.4
20190318222028 52 327 0.0 3.0 0.00 0.00 0.00 62 954.4
20190318221530 51 290 0.0 3.0 0.00 0.00 0.00 63 954.3
20190318221028 51 201 0.0 1.0 0.00 0.00 0.00 63 954.2
20190318220530 51 194 0.0 3.0 0.00 0.00 0.00 62 954.1
20190318220028 51 194 0.0 3.0 0.00 0.00 0.00 62 954.1
20190318215526 51 203 0.0 2.0 0.00 0.00 0.00 62 954.0
20190318215029 52 232 0.0 2.0 0.00 0.00 0.00 62 953.8
20190318214551 52 193 0.0 2.0 0.00 0.00 0.00 62 953.9
20190318214100 52 195 0.0 2.0 0.00 0.00 0.00 61 953.8
20190318213557 52 215 1.0 3.0 0.00 0.00 0.00 61 953.7
20190318213057 52 229 1.0 5.0 0.00 0.00 0.00 61 953.7
20190318212558 52 212 2.0 5.0 0.00 0.00 0.00 60 953.7
20190318212109 52 247 2.0 4.0 0.00 0.00 0.00 60 953.7
20190318211541 52 226 1.0 3.0 0.00 0.00 0.00 60 953.6
20190318211047 52 217 1.0 3.0 0.00 0.00 0.00 60 953.6
20190318210532 52 195 1.0 4.0 0.00 0.00 0.00 60 953.6
20190318210033 52 222 2.0 4.0 0.00 0.00 0.00 60 953.6
20190318205529 52 194 2.0 3.0 0.00 0.00 0.00 60 953.6
20190318205026 52 197 1.0 3.0 0.00 0.00 0.00 60 953.6
20190318204529 52 193 1.0 3.0 0.00 0.00 0.00 60 953.6
20190318204045 52 200 1.0 2.0 0.00 0.00 0.00 60 953.5
20190318203524 52 193 0.0 2.0 0.00 0.00 0.00 60 953.4
20190318203025 53 194 1.0 4.0 0.00 0.00 0.00 59 953.4
20190318202523 53 193 1.0 4.0 0.00 0.00 0.00 58 953.3
20190318202018 53 241 1.0 4.0 0.00 0.00 0.00 58 953.3
20190318201526 53 252 1.0 3.0 0.00 0.00 0.00 58 953.2
20190318201052 53 193 1.0 2.0 0.00 0.00 0.00 58 953.2
20190318200532 53 255 1.0 6.0 0.00 0.00 0.00 57 953.1
20190318200021 54 195 1.0 6.0 0.00 0.00 0.00 57 953.1
20190318195516 54 264 2.0 8.0 0.00 0.00 0.00 57 953.0
20190318195027 54 304 1.0 8.0 0.00 0.00 0.00 57 952.9
20190318194524 54 193 1.0 5.0 0.00 0.00 0.00 57 952.9
20190318194039 54 163 2.0 6.0 0.00 0.00 0.00 56 952.8
20190318193515 54 164 2.0 8.0 0.00 0.00 0.00 56 952.8
20190318193014 54 232 2.0 8.0 0.00 0.00 0.00 56 952.7
20190318192523 55 194 2.0 9.0 0.00 0.00 0.00 55 952.7
20190318192018 55 291 2.0 9.0 0.00 0.00 0.00 55 952.6
20190318191518 55 163 2.0 7.0 0.00 0.00 0.00 55 952.5
20190318191016 55 163 1.0 6.0 0.00 0.00 0.00 55 952.4
20190318190533 55 150 1.0 6.0 0.00 0.00 0.00 55 952.5
20190318190021 55 256 2.0 8.0 0.00 0.00 0.00 55 952.4
20190318185521 55 269 2.0 8.0 0.00 0.00 0.00 54 952.4
20190318185032 56 164 2.0 7.0 0.00 0.00 0.00 54 952.3
20190318184519 56 219 2.0 7.0 0.00 0.00 0.00 54 952.3
20190318184030 56 342 1.0 7.0 0.00 0.00 0.00 54 952.2
20190318183528 56 270 1.0 6.0 0.00 0.00 0.00 54 952.2
20190318183040 56 245 2.0 8.0 0.00 0.00 0.00 54 952.1
20190318182525 56 193 2.0 10.0 0.00 0.00 0.00 53 952.0
20190318182022 57 282 2.0 10.0 0.00 0.00 0.00 53 951.9
20190318181519 57 252 4.0 12.0 0.00 0.00 0.00 53 951.9
20190318181017 57 217 4.0 12.0 0.00 0.00 0.00 53 951.9
20190318180543 57 269 4.0 12.0 0.00 0.00 0.00 52 951.8
20190318180025 58 283 4.0 13.0 0.00 0.00 0.00 52 951.7
20190318175534 58 280 5.0 13.0 0.00 0.00 0.00 51 951.6
20190318175028 58 291 5.0 11.0 0.00 0.00 0.00 51 951.5
20190318174518 58 313 4.0 11.0 0.00 0.00 0.00 51 951.5
20190318174016 58 322 4.0 10.0 0.00 0.00 0.00 50 951.4
20190318173527 59 310 4.0 11.0 0.00 0.00 0.00 50 951.3
20190318173018 59 283 4.0 11.0 0.00 0.00 0.00 50 951.2
20190318172542 59 264 5.0 12.0 0.00 0.00 0.00 49 951.1
20190318172017 60 324 5.0 12.0 0.00 0.00 0.00 49 951.1
20190318171541 60 282 5.0 11.0 0.00 0.00 0.00 49 951.0
20190318171026 60 271 4.0 12.0 0.00 0.00 0.00 48 950.9
20190318170527 60 281 5.0 12.0 0.00 0.00 0.00 48 950.9
20190318170023 61 285 6.0 15.0 0.00 0.00 0.00 48 950.7
20190318165527 61 273 6.0 15.0 0.00 0.00 0.00 47 950.7
20190318165017 61 167 6.0 11.0 0.00 0.00 0.00 47 950.6
20190318164518 61 270 6.0 11.0 0.00 0.00 0.00 47 950.6
20190318164029 62 270 6.0 16.0 0.00 0.00 0.00 46 950.5
20190318163527 62 284 7.0 16.0 0.00 0.00 0.00 46 950.4
20190318163031 62 267 7.0 16.0 0.00 0.00 0.00 45 950.4
20190318162525 63 269 8.0 16.0 0.00 0.00 0.00 45 950.3
20190318162025 63 18 7.0 15.0 0.00 0.00 0.00 44 950.3
20190318161531 64 309 6.0 15.0 0.00 0.00 0.00 44 950.2
20190318161028 64 278 6.0 14.0 0.00 0.00 0.00 43 950.0
20190318160524 64 289 6.0 16.0 0.00 0.00 0.00 43 950.0
20190318160029 65 283 7.0 16.0 0.00 0.00 0.00 42 949.9
20190318155541 65 284 7.0 13.0 0.00 0.00 0.00 42 949.8
20190318155041 65 231 6.0 13.0 0.00 0.00 0.00 41 949.8
20190318154528 66 263 6.0 13.0 0.00 0.00 0.00 41 949.8
20190318154037 66 291 6.0 15.0 0.00 0.00 0.00 40 949.7
20190318153551 66 275 8.0 15.0 0.00 0.00 0.00 39 949.7
20190318153054 67 293 8.0 17.0 0.00 0.00 0.00 39 949.6
20190318152512 67 290 8.0 17.0 0.00 0.00 0.00 38 949.6
20190318152013 67 258 8.0 15.0 0.00 0.00 0.00 38 949.5
20190318151511 68 253 9.0 19.0 0.00 0.00 0.00 38 949.4
20190318151021 68 271 9.0 19.0 0.00 0.00 0.00 38 949.4
20190318150508 68 280 8.0 16.0 0.00 0.00 0.00 37 949.4
20190318150009 69 298 8.0 18.0 0.00 0.00 0.00 36 949.5
20190318145508 69 266 8.0 18.0 0.00 0.00 0.00 36 949.4
20190318145010 70 273 6.0 17.0 0.00 0.00 0.00 34 949.3
20190318144506 71 231 4.0 17.0 0.00 0.00 0.00 31 949.3
20190318144015 71 322 4.0 10.0 0.00 0.00 0.00 27 949.2
20190318143514 71 274 5.0 11.0 0.00 0.00 0.00 26 949.2
20190318143018 72 233 3.0 11.0 0.00 0.00 0.00 25 949.2
20190318142528 74 295 2.0 8.0 0.00 0.00 0.00 24 949.2
20190318142015 73 204 1.0 5.0 0.00 0.00 0.00 23 949.2
20190318141500 74 283 1.0 4.0 0.00 0.00 0.00 22 949.2
20190318141012 74 264 2.0 4.0 0.00 0.00 0.00 22 949.2
20190318140503 74 204 3.0 9.0 0.00 0.00 0.00 23 949.3
20190318140018 74 193 4.0 11.0 0.00 0.00 0.00 23 949.4
20190318135522 74 212 4.0 11.0 0.00 0.00 0.00 22 949.4
20190318134957 74 267 4.0 9.0 0.00 0.00 0.00 22 949.4
20190318134512 74 202 3.0 9.0 0.00 0.00 0.00 23 949.4
20190318134006 73 195 2.0 7.0 0.00 0.00 0.00 23 949.4
20190318133501 73 283 2.0 7.0 0.00 0.00 0.00 23 949.4
20190318133019 73 167 2.0 8.0 0.00 0.00 0.00 24 949.5
20190318132512 72 167 1.0 8.0 0.00 0.00 0.00 24 949.6
20190318132008 71 133 2.0 7.0 0.00 0.00 0.00 27 949.6
20190318131513 71 40 2.0 7.0 0.00 0.00 0.00 27 949.5
20190318131006 71 84 1.0 4.0 0.00 0.00 0.00 28 949.6
20190318130506 72 167 1.0 3.0 0.00 0.00 0.00 28 949.6
20190318130005 71 167 1.0 5.0 0.00 0.00 0.00 28 949.7
20190318125458 72 167 2.0 7.0 0.00 0.00 0.00 28 949.8
20190318124954 72 77 3.0 9.0 0.00 0.00 0.00 28 949.8
20190318124457 72 148 4.0 9.0 0.00 0.00 0.00 28 949.9
20190318123954 72 167 3.0 8.0 0.00 0.00 0.00 27 950.0
20190318123506 72 156 3.0 8.0 0.00 0.00 0.00 26 950.0
20190318122954 72 167 3.0 6.0 0.00 0.00 0.00 26 950.1
20190318122456 71 122 2.0 6.0 0.00 0.00 0.00 29 950.2
20190318121951 72 101 2.0 5.0 0.00 0.00 0.00 28 950.2
20190318121452 72 40 2.0 6.0 0.00 0.00 0.00 28 950.3
20190318121021 72 143 2.0 6.0 0.00 0.00 0.00 28 950.3
20190318120456 71 130 3.0 7.0 0.00 0.00 0.00 29 950.4
20190318120006 72 105 2.0 7.0 0.00 0.00 0.00 27 950.4
20190318115454 72 134 2.0 7.0 0.00 0.00 0.00 27 950.4
20190318114957 72 215 2.0 7.0 0.00 0.00 0.00 27 950.5
20190318114455 72 193 2.0 7.0 0.00 0.00 0.00 27 950.6
20190318113956 72 218 3.0 9.0 0.00 0.00 0.00 26 950.7
20190318113451 72 193 3.0 9.0 0.00 0.00 0.00 26 950.7
20190318112955 72 193 2.0 7.0 0.00 0.00 0.00 27 950.8
20190318112450 71 229 2.0 6.0 0.00 0.00 0.00 28 950.8
20190318111951 71 341 2.0 5.0 0.00 0.00 0.00 29 950.9
20190318111452 71 235 1.0 5.0 0.00 0.00 0.00 30 951.1
20190318110950 71 193 0.0 3.0 0.00 0.00 0.00 30 951.2
20190318110506 71 193 1.0 5.0 0.00 0.00 0.00 30 951.3
20190318110031 69 193 2.0 5.0 0.00 0.00 0.00 31 951.4
20190318105524 69 218 2.0 5.0 0.00 0.00 0.00 32 951.4
20190318104958 68 193 2.0 5.0 0.00 0.00 0.00 33 951.5
20190318104503 69 193 2.0 5.0 0.00 0.00 0.00 34 951.6
20190318104016 68 193 2.0 5.0 0.00 0.00 0.00 34 951.6
20190318103502 68 193 1.0 5.0 0.00 0.00 0.00 33 951.7
20190318103015 69 257 1.0 7.0 0.00 0.00 0.00 33 951.7
20190318102452 68 193 2.0 7.0 0.00 0.00 0.00 34 951.7
20190318101953 68 193 1.0 4.0 0.00 0.00 0.00 34 951.7
20190318101456 68 193 1.0 6.0 0.00 0.00 0.00 35 951.8
20190318101003 67 222 2.0 6.0 0.00 0.00 0.00 35 951.8
20190318100455 67 231 1.0 5.0 0.00 0.00 0.00 35 951.8
20190318100022 67 193 1.0 5.0 0.00 0.00 0.00 35 951.9
20190318095448 67 193 1.0 3.0 0.00 0.00 0.00 34 952.0
20190318094949 67 193 1.0 5.0 0.00 0.00 0.00 35 952.1
20190318094447 66 219 1.0 5.0 0.00 0.00 0.00 36 952.2
20190318093951 66 193 1.0 4.0 0.00 0.00 0.00 36 952.3
20190318093508 65 193 1.0 4.0 0.00 0.00 0.00 37 952.3
20190318093018 65 231 1.0 4.0 0.00 0.00 0.00 36 952.3
20190318092505 65 193 0.0 4.0 0.00 0.00 0.00 37 952.3
20190318091957 64 193 0.0 3.0 0.00 0.00 0.00 38 952.4
20190318091447 64 194 0.0 2.0 0.00 0.00 0.00 39 952.4
20190318091015 63 194 1.0 2.0 0.00 0.00 0.00 39 952.5
20190318090518 63 193 1.0 2.0 0.00 0.00 0.00 40 952.5
20190318090030 62 193 1.0 2.0 0.00 0.00 0.00 41 952.6
20190318085520 61 225 1.0 3.0 0.00 0.00 0.00 42 952.7
20190318085006 61 193 1.0 3.0 0.00 0.00 0.00 41 952.7
20190318084509 60 193 1.0 3.0 0.00 0.00 0.00 42 952.7
20190318084010 59 193 1.0 3.0 0.00 0.00 0.00 43 952.7
20190318083450 60 193 0.0 3.0 0.00 0.00 0.00 43 952.8
20190318082953 59 193 1.0 3.0 0.00 0.00 0.00 44 952.8
20190318082454 58 61 1.0 3.0 0.00 0.00 0.00 44 952.9
20190318081953 59 98 1.0 2.0 0.00 0.00 0.00 44 952.9
20190318081507 58 117 1.0 2.0 0.00 0.00 0.00 46 953.0
20190318080959 58 116 0.0 2.0 0.00 0.00 0.00 45 953.1
20190318080449 57 96 1.0 3.0 0.00 0.00 0.00 46 953.1
20190318075949 57 113 0.0 3.0 0.00 0.00 0.00 46 953.1
20190318075447 56 118 0.0 2.0 0.00 0.00 0.00 48 953.2
20190318074949 56 95 1.0 2.0 0.00 0.00 0.00 47 953.3
20190318074443 55 162 1.0 3.0 0.00 0.00 0.00 48 953.4
20190318073946 55 136 1.0 3.0 0.00 0.00 0.00 49 953.4
20190318073444 54 113 1.0 2.0 0.00 0.00 0.00 50 953.4
20190318072956 54 111 0.0 2.0 0.00 0.00 0.00 50 953.4
20190318072451 52 108 0.0 1.0 0.00 0.00 0.00 53 953.4
20190318071955 51 127 1.0 2.0 0.00 0.00 0.00 54 953.4
20190318071455 51 134 0.0 2.0 0.00 0.00 0.00 54 953.4
20190318070950 50 135 0.0 2.0 0.00 0.00 0.00 57 953.5
20190318070450 49 53 1.0 2.0 0.00 0.00 0.00 59 953.5
20190318065957 48 75 1.0 2.0 0.00 0.00 0.00 59 953.5
20190318065459 48 89 0.0 1.0 0.00 0.00 0.00 59 953.5
20190318064950 48 120 0.0 2.0 0.00 0.00 0.00 61 953.6
20190318064453 45 58 1.0 2.0 0.00 0.00 0.00 63 953.5
20190318063951 45 61 1.0 2.0 0.00 0.00 0.00 62 953.5
20190318063456 45 62 0.0 2.0 0.00 0.00 0.00 63 953.6
20190318062946 45 95 0.0 2.0 0.00 0.00 0.00 65 953.6
20190318062448 44 64 0.0 2.0 0.00 0.00 0.00 64 953.6
20190318062009 44 76 0.0 2.0 0.00 0.00 0.00 64 953.7
20190318061451 44 95 0.0 2.0 0.00 0.00 0.00 64 953.7
20190318060953 43 118 0.0 1.0 0.00 0.00 0.00 67 953.7
20190318060448 42 141 0.0 1.0 0.00 0.00 0.00 68 953.7
20190318055951 42 68 0.0 1.0 0.00 0.00 0.00 69 953.8
20190318055450 41 65 0.0 1.0 0.00 0.00 0.00 70 953.7
20190318054953 41 70 0.0 1.0 0.00 0.00 0.00 70 953.7
20190318054453 41 76 0.0 1.0 0.00 0.00 0.00 70 953.7
20190318053948 41 77 0.0 1.0 0.00 0.00 0.00 71 953.7
20190318053455 41 79 0.0 1.0 0.00 0.00 0.00 69 953.6
20190318052955 41 162 0.0 0.0 0.00 0.00 0.00 71 953.7
20190318052452 40 162 0.0 0.0 0.00 0.00 0.00 72 953.7
20190318051951 39 162 0.0 0.0 0.00 0.00 0.00 73 953.7
20190318051456 39 162 0.0 0.0 0.00 0.00 0.00 73 953.7
20190318050947 38 162 0.0 0.0 0.00 0.00 0.00 74 953.6
20190318050452 38 163 0.0 0.0 0.00 0.00 0.00 76 953.5
20190318045950 37 162 0.0 0.0 0.00 0.00 0.00 77 953.4
20190318045449 37 163 0.0 2.0 0.00 0.00 0.00 77 953.4
20190318044952 36 163 0.0 2.0 0.00 0.00 0.00 78 953.4
20190318044450 36 163 0.0 1.0 0.00 0.00 0.00 79 953.4
20190318043948 36 164 0.0 0.0 0.00 0.00 0.00 79 953.4
20190318043446 36 164 0.0 0.0 0.00 0.00 0.00 78 953.4
20190318042948 36 162 0.0 0.0 0.00 0.00 0.00 78 953.4
20190318042444 36 162 0.0 1.0 0.00 0.00 0.00 78 953.3
20190318041947 36 162 0.0 1.0 0.00 0.00 0.00 77 953.2
20190318041429 36 162 0.0 1.0 0.00 0.00 0.00 77 953.1
20190318040929 36 162 0.0 0.0 0.00 0.00 0.00 77 953.1
20190318040431 37 164 0.0 0.0 0.00 0.00 0.00 76 953.2
20190318035929 37 163 0.0 1.0 0.00 0.00 0.00 76 953.2
20190318035428 37 164 0.0 1.0 0.00 0.00 0.00 75 953.2
20190318034928 37 162 0.0 1.0 0.00 0.00 0.00 74 953.1
20190318034426 38 162 0.0 1.0 0.00 0.00 0.00 74 953.1
20190318033939 38 162 0.0 1.0 0.00 0.00 0.00 74 953.0
20190318033423 38 163 0.0 1.0 0.00 0.00 0.00 75 952.9
20190318032938 37 163 0.0 1.0 0.00 0.00 0.00 76 952.9
20190318032446 37 162 0.0 0.0 0.00 0.00 0.00 74 952.9
20190318031946 38 164 0.0 0.0 0.00 0.00 0.00 74 952.9
20190318031446 38 162 0.0 1.0 0.00 0.00 0.00 73 952.9
20190318030941 38 163 0.0 1.0 0.00 0.00 0.00 74 952.8
20190318030454 38 138 0.0 0.0 0.00 0.00 0.00 73 952.9
20190318025949 38 138 0.0 1.0 0.00 0.00 0.00 73 952.8
20190318025425 38 138 0.0 1.0 0.00 0.00 0.00 74 952.8
20190318024925 38 138 0.0 1.0 0.00 0.00 0.00 74 952.8
20190318024425 38 139 0.0 1.0 0.00 0.00 0.00 74 952.8
20190318023931 38 141 0.0 1.0 0.00 0.00 0.00 74 952.8
20190318023426 38 6 0.0 1.0 0.00 0.00 0.00 73 952.8
20190318022924 38 6 0.0 1.0 0.00 0.00 0.00 73 952.8
20190318022441 38 6 0.0 1.0 0.00 0.00 0.00 73 952.8
20190318021921 39 6 0.0 1.0 0.00 0.00 0.00 72 952.8
20190318021420 39 6 0.0 0.0 0.00 0.00 0.00 71 952.8
20190318020927 39 6 0.0 1.0 0.00 0.00 0.00 71 952.8
20190318020419 39 6 0.0 1.0 0.00 0.00 0.00 71 952.8
20190318015923 39 6 0.0 0.0 0.00 0.00 0.00 71 952.7
20190318015445 40 6 0.0 1.0 0.00 0.00 0.00 71 952.7
20190318014933 40 6 0.0 1.0 0.00 0.00 0.00 71 952.7
20190318014445 40 349 0.0 1.0 0.00 0.00 0.00 70 952.7
20190318013959 40 348 0.0 1.0 0.00 0.00 0.00 69 952.7
20190318013431 41 349 0.0 1.0 0.00 0.00 0.00 69 952.7
20190318012930 41 349 0.0 1.0 0.00 0.00 0.00 69 952.6
20190318012423 41 349 0.0 2.0 0.00 0.00 0.00 69 952.5
20190318011922 41 63 0.0 2.0 0.00 0.00 0.00 68 952.6
20190318011417 41 63 0.0 2.0 0.00 0.00 0.00 68 952.6
20190318010917 41 110 0.0 1.0 0.00 0.00 0.00 67 952.6
20190318010445 42 110 0.0 1.0 0.00 0.00 0.00 67 952.6
20190318005915 41 110 0.0 1.0 0.00 0.00 0.00 67 952.6
20190318005414 42 147 0.0 2.0 0.00 0.00 0.00 66 952.7
20190318004922 42 147 0.0 2.0 0.00 0.00 0.00 66 952.7
20190318004421 42 164 0.0 1.0 0.00 0.00 0.00 67 952.7
20190318003914 42 164 0.0 1.0 0.00 0.00 0.00 66 952.8
20190318003414 42 144 0.0 1.0 0.00 0.00 0.00 66 952.8
20190318002915 42 146 0.0 4.0 0.00 0.00 0.00 65 952.8
20190318002425 43 158 1.0 4.0 0.00 0.00 0.00 65 952.9
20190318001921 42 163 1.0 3.0 0.00 0.00 0.00 65 952.9
20190318001417 42 164 0.0 2.0 0.00 0.00 0.00 65 952.9
20190318000935 42 163 0.0 1.0 0.00 0.00 0.00 66 952.9
20190318000431 42 149 0.0 1.0 0.00 0.00 0.00 66 953.0
20190317235926 43 149 0.0 1.0 0.00 0.00 0.00 65 952.9
20190317235414 43 150 0.0 1.0 0.00 0.00 0.00 64 952.9